EW0159 Weather Reports


time (UTC)temp
C
wind
direction
speed
KPH
gust
KPH
rain 1hr
cm
rain 24hr
cm
rain mn
cm
humidity
%
barometer
mb
20260505151545 11 205 3.2 6.4 0.00 0.00 0.00 73 1015.9
20260505124526 11 167 0.0 1.6 0.00 0.00 0.00 77 1014.9
20260505123039 11 167 0.0 1.6 0.00 0.00 0.00 77 1014.8
20260505121524 11 167 0.0 3.2 0.00 0.00 0.00 77 1014.8
20260505120028 11 167 0.0 1.6 0.00 0.00 0.00 77 1014.8
20260505114521 11 167 0.0 3.2 0.00 0.00 0.00 77 1014.7
20260505113032 11 167 0.0 0.0 0.00 0.00 0.00 76 1014.6
20260505111527 11 167 0.0 0.0 0.00 0.00 0.00 76 1014.6
20260505101515 10 167 0.0 1.6 0.00 0.00 0.00 77 1014.2
20260505100012 10 167 0.0 0.0 0.00 0.00 0.00 77 1014.1
20260505094511 10 167 0.0 1.6 0.00 0.00 0.00 77 1014.0
20260505093010 10 167 0.0 0.0 0.00 0.00 0.00 78 1014.0
20260505091506 11 53 0.0 3.2 0.00 0.00 0.00 79 1013.7
20260505090004 11 53 0.0 0.0 0.00 0.00 0.00 80 1013.6
20260505084501 11 53 0.0 0.0 0.00 0.00 0.00 80 1013.5
20260505083117 11 53 0.0 1.6 0.00 0.00 0.00 81 1013.4
20260505081558 12 105 0.0 3.2 0.00 0.00 0.00 81 1013.4
20260505080054 12 79 1.6 6.4 0.00 0.00 0.00 80 1013.3
20260505074553 12 70 1.6 8.0 0.00 0.00 0.00 79 1013.2
20260505073053 12 178 1.6 4.8 0.00 0.00 0.00 79 1013.0
20260505071546 12 69 0.0 0.0 0.00 0.00 0.00 80 1012.8
20260505070050 12 69 0.0 1.6 0.00 0.00 0.00 80 1012.5
20260505064556 12 69 1.6 4.8 0.00 0.00 0.00 79 1012.4
20260505063050 13 34 0.0 3.2 0.00 0.00 0.00 80 1012.2
20260505061544 13 34 0.0 3.2 0.00 0.00 0.00 80 1011.9
20260505060042 13 34 0.0 1.6 0.00 0.00 0.00 81 1011.8
20260505054548 14 34 0.0 3.2 0.00 0.00 0.00 81 1011.7
20260505053041 14 34 0.0 4.8 0.00 0.00 0.00 81 1011.8
20260505051541 15 34 0.0 3.2 0.00 0.00 0.00 81 1011.6
20260505041546 17 325 0.0 3.2 0.00 0.00 0.00 79 1010.9
20260505040038 17 325 0.0 4.8 0.00 0.00 0.00 78 1010.6
20260505034542 18 33 0.0 3.2 0.00 0.00 0.00 79 1010.4
20260505033038 18 34 0.0 3.2 0.00 0.00 0.00 78 1010.2
20260505031537 20 260 0.0 1.6 0.00 0.00 0.00 75 1010.0
20260505030036 21 260 0.0 1.6 0.00 0.00 0.00 71 1009.9
20260505024543 21 234 0.0 1.6 0.00 0.00 0.00 70 1009.8
20260505023044 22 234 0.0 4.8 0.00 0.00 0.00 69 1009.7
20260505021540 22 209 4.8 8.0 0.00 0.00 0.00 68 1009.6
20260505020034 22 259 1.6 8.0 0.00 0.00 0.00 67 1009.7
20260505014540 22 241 3.2 8.0 0.00 0.00 0.00 66 1009.7
20260505013033 22 227 4.8 11.3 0.00 0.00 0.00 67 1009.7
20260505011534 23 202 3.2 8.0 0.00 0.00 0.00 67 1009.6
20260505010033 23 219 6.4 11.3 0.00 0.00 0.00 66 1009.8
20260505004532 23 218 4.8 11.3 0.00 0.00 0.00 63 1009.9
20260505003029 23 240 6.4 14.5 0.00 0.00 0.00 65 1009.9
20260505001535 23 236 8.0 12.9 0.00 0.00 0.00 63 1009.9
20260505000038 23 162 6.4 14.5 0.00 0.00 0.00 64 1010.1
20260504234528 23 170 4.8 11.3 0.00 0.00 0.00 66 1010.1
20260504233028 23 176 3.2 11.3 0.00 0.00 0.00 66 1010.2
20260504231530 23 165 4.8 9.7 0.00 0.00 0.00 65 1010.3
20260504230023 23 59 3.2 11.3 0.00 0.00 0.00 64 1010.4
20260504224525 22 207 4.8 12.9 0.00 0.00 0.00 67 1010.7
20260504223019 22 154 6.4 11.3 0.00 0.00 0.00 64 1010.8
20260504221515 21 146 3.2 12.9 0.00 0.00 0.00 68 1011.0
20260504220018 21 155 4.8 12.9 0.00 0.00 0.00 68 1011.3
20260504214511 21 159 3.2 11.3 0.00 0.00 0.00 71 1011.3
20260504213012 20 156 4.8 12.9 0.00 0.00 0.00 71 1011.5
20260504211512 20 195 6.4 14.5 0.00 0.00 0.00 72 1011.7
20260504210007 20 188 4.8 11.3 0.00 0.00 0.00 71 1012.0
20260504204504 20 222 3.2 11.3 0.00 0.00 0.00 72 1012.2
20260504203007 19 62 4.8 11.3 0.00 0.00 0.00 72 1012.3
20260504201501 19 132 3.2 11.3 0.00 0.00 0.00 72 1012.5
20260504194608 18 190 3.2 11.3 0.00 0.00 0.00 75 1012.6
20260504193055 18 166 6.4 11.3 0.00 0.00 0.00 73 1012.8
20260504191552 17 294 4.8 12.9 0.00 0.00 0.00 74 1012.9
20260504190114 17 138 4.8 11.3 0.00 0.00 0.00 76 1013.0
20260504184556 17 151 8.0 14.5 0.00 0.00 0.00 76 1013.1
20260504183050 17 171 6.4 14.5 0.00 0.00 0.00 77 1013.0
20260504181553 17 124 8.0 12.9 0.00 0.00 0.00 76 1012.9
20260504180135 16 130 4.8 11.3 0.00 0.00 0.00 79 1013.0
20260504174550 16 217 6.4 11.3 0.00 0.00 0.00 79 1013.2
20260504173058 15 140 1.6 8.0 0.00 0.00 0.00 78 1013.1
20260504171546 15 86 4.8 9.7 0.00 0.00 0.00 78 1013.0